[[{"header":{"parameterUnit":"m.s-1","parameterCategory":1,"la1":30.2991,"la2":30.254,"lo1":-89.0895,"lo2":-89.0444,"dy":0.0017,"dx":0.0017,"nx":28,"ny":28,"refTime":"2023-07-18T03:00:00:Z","depth":0,"parameterNumber":2,"parameterNumberName":"U-component_of_WINDS"},"data":[0,0,0,0,0,0,0,0,0,0,0,0,0,0,0,0,0,0,0,0,0,0,0,0,0,0,0,0,0,0,0,0,0,0,0,0,0,0,0,0,0,0,0,0,0,0,0,0,0,0,0,0,0,0,0,0,0,0,1.3616,1.3616,0,1.3625,1.3625,1.3626,1.3618,1.3618,1.3617,1.3617,1.3626,1.3626,1.3627,0,0,0,0,0,0,0,0,0,0,0,0,0,1.3592,1.3593,1.3616,1.3616,1.3616,1.3625,1.3625,1.3626,1.3618,1.3618,1.3617,1.3617,1.3625,1.3626,1.3627,0,0,0,0,0,0,0,0,0,0,0,0,0,1.3602,1.3593,1.3616,1.3614,1.3614,1.3625,1.3625,1.3626,1.3618,1.3618,1.3617,1.3617,1.3625,1.3626,1.3627,1.3641,0,0,1.3629,1.3629,0,0,0,0,0,0,0,0,1.3601,1.3603,1.3614,1.3614,1.3614,1.362,1.362,1.3631,1.3618,1.3616,1.3617,1.3617,1.3624,1.3625,1.3628,1.3641,1.3642,1.3629,1.363,1.363,1.363,0,0,0,0,0,0,0,1.3601,1.3602,1.362,1.3614,1.3614,1.3612,1.3613,1.3622,1.3623,1.3617,1.3616,1.3617,1.3624,1.3627,1.3628,1.3642,1.3629,1.363,1.363,1.3631,1.3669,1.367,0,0,0,0,0,0,1.36,1.3602,1.3619,1.362,1.3606,1.3613,1.3614,1.3619,1.3623,1.3623,1.3618,1.3617,1.3626,1.3627,1.3628,1.3646,1.363,1.3631,1.3631,1.3669,1.3669,1.367,0,0,0,0,0,0,1.36,1.3602,1.3619,1.3611,1.3613,1.3614,1.3619,1.3619,1.3622,1.3624,1.3624,1.3621,1.3626,1.3627,1.3638,1.3646,1.3631,1.3632,1.3668,1.3669,1.367,1.3681,0,0,0,0,0,0,1.3599,1.3602,1.3607,1.3611,1.3613,1.3629,1.362,1.3619,1.3623,1.3622,1.3626,1.3626,1.3625,1.3637,1.3639,1.3647,1.3632,1.3667,1.3668,1.3669,1.368,1.3682,1.3684,0,0,0,0,0,1.3598,1.3609,1.3607,1.361,1.362,1.3629,1.3631,1.3629,1.3624,1.3629,1.3631,1.3626,1.3645,1.3638,1.364,1.3648,1.3667,1.3668,1.3669,1.3679,1.3681,1.3684,0,0,0,0,0,0,1.3605,1.361,1.3608,1.362,1.3625,1.3628,1.3635,1.3632,1.3638,1.3637,1.3635,1.3636,1.3648,1.3649,1.3642,1.3663,1.3655,1.3657,1.3661,1.3664,1.3666,1.3665,1.3633,0,0,0,0,0,1.3609,1.3616,1.3619,1.363,1.3633,1.3633,1.3637,1.3636,1.3641,1.3642,1.3644,1.3648,1.3655,1.366,1.3666,1.368,1.3681,1.3687,1.3689,1.3691,1.3692,1.37,1.3703,1.3674,1.3674,1.3674,0,0,1.3615,1.3618,1.3623,1.3632,1.3635,1.3643,1.3635,1.3643,1.3649,1.3643,1.3654,1.3656,1.3661,1.3674,1.368,1.3676,1.37,1.3692,1.3693,1.3694,1.3702,1.3705,1.3707,1.3675,1.3675,1.3675,0,0,1.363,1.3633,1.3643,1.3647,1.3652,1.3653,1.3656,1.366,1.3661,1.3673,1.3669,1.3676,1.3688,1.3691,1.3695,1.3714,1.371,1.3716,1.3726,1.3734,1.3737,1.3739,1.3746,1.3748,1.3718,1.3718,1.3718,0,1.3637,1.3649,1.3648,1.3657,1.3662,1.3658,1.3668,1.3672,1.3679,1.3682,1.3678,1.3693,1.3696,1.371,1.3715,1.3718,1.3721,1.3715,1.3736,1.3738,1.374,1.3747,1.375,1.3718,1.3718,1.3718,1.3718,0,1.3657,1.3665,1.3673,1.3681,1.3686,1.3695,1.3697,1.3702,1.3701,1.3703,1.3715,1.3718,1.3726,1.3729,1.3728,1.3744,1.3741,1.3737,1.3728,1.3744,1.375,1.3753,1.3719,1.3719,1.3719,1.3719,0,0,1.3675,1.3684,1.3687,1.3691,1.3698,1.3704,1.3714,1.3722,1.3727,1.3733,1.3741,1.3752,1.3749,1.3753,1.3752,1.3759,1.3775,1.3754,1.3754,1.3758,1.3793,1.3796,1.3799,1.3773,1.3773,1.3774,1.3793,0,1.3691,1.3708,1.3709,1.3725,1.3733,1.3731,1.374,1.3745,1.3747,1.3754,1.3757,1.3765,1.3759,1.3762,1.3769,1.3771,1.3782,1.377,1.378,1.3781,1.3779,1.3802,1.3805,1.3822,1.3795,1.3795,1.3796,0,1.3711,1.3718,1.3735,1.3742,1.3746,1.3753,1.3762,1.3769,1.3775,1.3776,1.3782,1.378,1.3791,1.3783,1.3798,1.379,1.3795,1.3797,1.3797,1.3798,1.3789,1.3803,1.3828,1.383,1.3799,1.3799,1.3799,0,1.3723,1.3737,1.3749,1.3753,1.3761,1.3767,1.377,1.3776,1.3782,1.3789,1.3792,1.3801,1.3805,1.3812,1.3813,1.3807,1.3828,1.382,1.3829,1.3829,1.3833,1.3832,1.3859,1.3836,1.3836,1.3836,1.3836,0,1.374,1.375,1.3755,1.3762,1.3774,1.3776,1.3787,1.3791,1.3796,1.3805,1.3803,1.3811,1.3812,1.3821,1.3822,1.3834,1.3836,1.3837,1.3837,1.3837,1.3837,1.3839,1.3838,1.3837,1.3837,1.3837,1.3837,0,1.3755,1.3758,1.3771,1.3779,1.3781,1.3789,1.3796,1.3803,1.3806,1.3816,1.3819,1.3823,1.3833,1.3835,1.3846,1.3847,1.3862,1.3861,1.386,1.3859,1.3868,1.3867,1.3897,1.3901,1.3876,1.3877,1.3877,0,1.3765,1.3773,1.3782,1.3788,1.3792,1.3801,1.3807,1.3809,1.3815,1.3824,1.383,1.384,1.3848,1.3864,1.3868,1.3877,1.3876,1.3886,1.3877,1.3877,1.3876,1.3875,1.3876,1.3887,1.3887,1.3887,1.3888,0,1.3783,1.3785,1.3793,1.3803,1.381,1.3818,1.3825,1.383,1.3833,1.384,1.385,1.3857,1.3869,1.3879,1.3888,1.3892,1.3891,1.3891,1.3893,1.3893,1.3892,1.3892,1.3864,1.389,1.3889,1.3889,1.3889,1.3889,1.3796,1.3803,1.3811,1.3821,1.3827,1.3834,1.3842,1.3846,1.3855,1.3866,1.3867,1.3878,1.3885,1.3898,1.3903,1.3912,1.3909,1.3912,1.3913,1.3914,1.3915,1.3891,1.3914,1.3914,1.3913,1.3913,1.3913,0,1.3814,1.3819,1.3828,1.3839,1.3847,1.3846,1.3855,1.3861,1.3871,1.3879,1.3887,1.39,1.391,1.3915,1.3925,1.3932,1.3931,1.3934,1.3933,1.3934,1.3917,1.3914,1.3934,1.3934,1.3934,1.3934,1.3934,1.3934,1.3824,1.3837,1.384,1.3856,1.3862,1.3873,1.3878,1.3885,1.3891,1.3905,1.3914,1.3918,1.3925,1.3935,1.3945,1.3946,1.395,1.3953,1.3954,1.3938,1.3935,1.3933,1.393,1.3954,1.3954,1.3971,1.3971,1.3971]},{"header":{"parameterUnit":"m.s-1","parameterCategory":1,"la1":30.2991,"la2":30.254,"lo1":-89.0895,"lo2":-89.0444,"dy":0.0017,"dx":0.0017,"nx":28,"ny":28,"refTime":"2023-07-18T03:00:00:Z","depth":0,"parameterNumber":3,"parameterNumberName":"V-component_of_WINDS"},"data":[0,0,0,0,0,0,0,0,0,0,0,0,0,0,0,0,0,0,0,0,0,0,0,0,0,0,0,0,0,0,0,0,0,0,0,0,0,0,0,0,0,0,0,0,0,0,0,0,0,0,0,0,0,0,0,0,0,0,-1.7281,-1.7282,0,-1.7319,-1.7319,-1.732,-1.7311,-1.731,-1.731,-1.7309,-1.7345,-1.7347,-1.7348,0,0,0,0,0,0,0,0,0,0,0,0,0,-1.7203,-1.7204,-1.7281,-1.7282,-1.7282,-1.7319,-1.7319,-1.732,-1.7311,-1.731,-1.7309,-1.7309,-1.7345,-1.7347,-1.7349,0,0,0,0,0,0,0,0,0,0,0,0,0,-1.7238,-1.7205,-1.7281,-1.7282,-1.7283,-1.7319,-1.7319,-1.732,-1.7311,-1.731,-1.7309,-1.7308,-1.7344,-1.7346,-1.7349,-1.7385,0,0,-1.7356,-1.7357,0,0,0,0,0,0,0,0,-1.7236,-1.7241,-1.7282,-1.7282,-1.7283,-1.7309,-1.7305,-1.7342,-1.7312,-1.73,-1.7309,-1.7308,-1.7334,-1.7337,-1.7346,-1.7387,-1.7388,-1.7357,-1.7358,-1.7359,-1.736,0,0,0,0,0,0,0,-1.7234,-1.7239,-1.7296,-1.7282,-1.7283,-1.7281,-1.7285,-1.7312,-1.7323,-1.7301,-1.7301,-1.7305,-1.7334,-1.7344,-1.7347,-1.7389,-1.7356,-1.7359,-1.736,-1.7361,-1.7464,-1.7466,0,0,0,0,0,0,-1.7231,-1.7237,-1.7295,-1.7297,-1.7256,-1.7283,-1.7288,-1.7302,-1.7322,-1.7324,-1.7306,-1.7305,-1.734,-1.7344,-1.7348,-1.7395,-1.7359,-1.7361,-1.7363,-1.7463,-1.7465,-1.7466,0,0,0,0,0,0,-1.7229,-1.7236,-1.7293,-1.7267,-1.7274,-1.7286,-1.7302,-1.7303,-1.7313,-1.7326,-1.7328,-1.7315,-1.734,-1.7345,-1.7377,-1.7396,-1.7362,-1.7365,-1.7462,-1.7464,-1.7465,-1.7486,0,0,0,0,0,0,-1.7227,-1.7235,-1.7249,-1.7268,-1.7276,-1.7321,-1.7303,-1.7305,-1.7318,-1.7316,-1.7334,-1.7336,-1.7339,-1.7373,-1.7379,-1.7399,-1.7367,-1.746,-1.7463,-1.7465,-1.7484,-1.7489,-1.7493,0,0,0,0,0,-1.7224,-1.7252,-1.725,-1.7257,-1.7293,-1.7322,-1.7327,-1.733,-1.7319,-1.7333,-1.7342,-1.7336,-1.7393,-1.7377,-1.7383,-1.7404,-1.7459,-1.7462,-1.7465,-1.7482,-1.7488,-1.7492,0,0,0,0,0,0,-1.7234,-1.7254,-1.7252,-1.7287,-1.7303,-1.7321,-1.7338,-1.7336,-1.7355,-1.7353,-1.7356,-1.736,-1.7393,-1.7401,-1.7383,-1.7442,-1.7424,-1.7429,-1.7435,-1.7441,-1.7445,-1.7443,-1.7369,0,0,0,0,0,-1.724,-1.7262,-1.7279,-1.7308,-1.7317,-1.7326,-1.7339,-1.7341,-1.7357,-1.7364,-1.7375,-1.7391,-1.7413,-1.7427,-1.7447,-1.7485,-1.749,-1.7502,-1.7507,-1.751,-1.7514,-1.7538,-1.7544,-1.7476,-1.7476,-1.7476,0,0,-1.7253,-1.7267,-1.728,-1.731,-1.7323,-1.7347,-1.7332,-1.7356,-1.7374,-1.7367,-1.7399,-1.7408,-1.7426,-1.7462,-1.7478,-1.747,-1.7534,-1.7514,-1.7517,-1.7519,-1.7541,-1.7548,-1.7554,-1.7478,-1.7477,-1.7477,0,0,-1.7289,-1.7301,-1.7328,-1.7342,-1.7363,-1.737,-1.7376,-1.7395,-1.7401,-1.7434,-1.743,-1.7451,-1.7487,-1.7502,-1.7514,-1.7559,-1.7555,-1.7566,-1.7589,-1.7612,-1.7617,-1.7622,-1.764,-1.7647,-1.7569,-1.7569,-1.757,0,-1.7302,-1.7338,-1.7342,-1.7369,-1.7383,-1.738,-1.7408,-1.7421,-1.7446,-1.7457,-1.7447,-1.7496,-1.7507,-1.7548,-1.756,-1.7569,-1.7578,-1.7564,-1.7616,-1.7621,-1.7626,-1.7643,-1.765,-1.7571,-1.7571,-1.7571,-1.757,0,-1.7355,-1.738,-1.7399,-1.7427,-1.7443,-1.747,-1.7479,-1.7495,-1.7496,-1.7504,-1.7539,-1.7553,-1.7578,-1.7588,-1.7588,-1.7629,-1.7624,-1.7615,-1.7598,-1.7633,-1.765,-1.7657,-1.7573,-1.7572,-1.7572,-1.7572,0,0,-1.7396,-1.7428,-1.7436,-1.7449,-1.7473,-1.7492,-1.752,-1.7546,-1.7561,-1.7579,-1.7604,-1.7637,-1.763,-1.7644,-1.7646,-1.7666,-1.7704,-1.7655,-1.7655,-1.7665,-1.7754,-1.7762,-1.7769,-1.7701,-1.7703,-1.7704,-1.7753,0,-1.7437,-1.7487,-1.7493,-1.7538,-1.7562,-1.7561,-1.7585,-1.7603,-1.7612,-1.7634,-1.7644,-1.7668,-1.7656,-1.7665,-1.7685,-1.7695,-1.7722,-1.7692,-1.7725,-1.7727,-1.7722,-1.7778,-1.7785,-1.7831,-1.776,-1.7761,-1.7761,0,-1.7489,-1.7512,-1.756,-1.7583,-1.7594,-1.7616,-1.7642,-1.7663,-1.7684,-1.7689,-1.7706,-1.7707,-1.7737,-1.7718,-1.7761,-1.774,-1.7754,-1.7762,-1.7764,-1.7768,-1.7747,-1.7785,-1.7846,-1.7853,-1.7771,-1.7771,-1.777,0,-1.7518,-1.756,-1.7595,-1.7606,-1.7634,-1.765,-1.7662,-1.7682,-1.7698,-1.7721,-1.7732,-1.7757,-1.7771,-1.7791,-1.7799,-1.7784,-1.7842,-1.7823,-1.7848,-1.7848,-1.7861,-1.786,-1.7926,-1.7867,-1.7867,-1.7867,-1.7867,0,-1.7563,-1.7593,-1.7609,-1.763,-1.7665,-1.7672,-1.7706,-1.7717,-1.7735,-1.776,-1.7759,-1.7782,-1.779,-1.7815,-1.7821,-1.7857,-1.7862,-1.7868,-1.787,-1.7869,-1.7869,-1.7879,-1.7877,-1.7869,-1.7869,-1.7868,-1.7868,0,-1.7601,-1.7612,-1.7651,-1.7675,-1.7682,-1.7706,-1.7727,-1.7749,-1.7758,-1.779,-1.7797,-1.7812,-1.7842,-1.7851,-1.7886,-1.789,-1.7933,-1.793,-1.7926,-1.7927,-1.7953,-1.7951,-1.8029,-1.8041,-1.7972,-1.7973,-1.7973,0,-1.7629,-1.7652,-1.768,-1.7698,-1.7711,-1.7738,-1.7756,-1.7764,-1.7782,-1.781,-1.7829,-1.7858,-1.7882,-1.7929,-1.7943,-1.7971,-1.797,-1.7996,-1.7974,-1.7974,-1.7973,-1.7973,-1.7976,-1.8,-1.8001,-1.8001,-1.8002,0,-1.7679,-1.7685,-1.771,-1.7739,-1.7761,-1.7783,-1.7805,-1.7819,-1.7832,-1.7852,-1.7883,-1.7902,-1.794,-1.797,-1.7998,-1.8011,-1.8009,-1.8009,-1.8016,-1.8017,-1.8015,-1.8019,-1.7939,-1.8007,-1.8006,-1.8006,-1.8006,-1.8006,-1.7715,-1.7737,-1.7761,-1.779,-1.7809,-1.783,-1.7853,-1.7866,-1.7893,-1.7925,-1.7928,-1.7962,-1.7985,-1.8023,-1.8038,-1.8065,-1.8058,-1.8068,-1.8071,-1.8074,-1.8077,-1.8009,-1.807,-1.807,-1.807,-1.8069,-1.8069,0,-1.7767,-1.7783,-1.781,-1.7843,-1.7866,-1.7864,-1.7889,-1.7909,-1.794,-1.7961,-1.7986,-1.8023,-1.8053,-1.8071,-1.8101,-1.812,-1.812,-1.8127,-1.8127,-1.8131,-1.8081,-1.8072,-1.8127,-1.8127,-1.8127,-1.8127,-1.8127,-1.8127,-1.7797,-1.7835,-1.7844,-1.7892,-1.7908,-1.7943,-1.7958,-1.7978,-1.7996,-1.8038,-1.8064,-1.8076,-1.8096,-1.8129,-1.8157,-1.8161,-1.8173,-1.8182,-1.8186,-1.8139,-1.8133,-1.8128,-1.812,-1.8184,-1.8184,-1.8234,-1.8234,-1.8234]}]]